Weather History for South Lake Tahoe, CA

Change the Weather History Date:

Friday, February 22, 2013

  Actual Average Record
Temperature  
Mean Temperature 31 °F 32 °F  
Max Temperature 48 °F 45 °F 60 °F (2002)
Min Temperature 14 °F 19 °F -5 °F (2011)
Degree Days  
Heating Degree Days 34 33  
Month to date heating degree days 751 758  
Since 1 July heating degree days 4822 5040  
Cooling Degree Days 0 0  
Month to date cooling degree days 0 0  
Year to date cooling degree days 0 0  
Moisture  
Dew Point 14 °F    
Average Humidity 49    
Maximum Humidity 80    
Minimum Humidity 18    
Precipitation  
Precipitation 0.00 in - 1.60 in (1977)
Month to date precipitation 0.19  
Year to date precipitation 0.90  
Sea Level Pressure  
Sea Level Pressure 30.16 in    
Wind  
Wind Speed 4 mph (South)    
Max Wind Speed 21 mph    
Max Gust Speed 25 mph    
Visibility 10 miles    
Events      
T = Trace of Precipitation, MM = Missing Value Source: NWS Daily Summary

Daily Weather History Graph

Daily Weather History Graph

Search for Another Location

Airport:

Trip Planner

Search our weather history database for the weather conditions in past years. The results will help you decide how hot, cold, wet, or windy it might be!

Date:

Astronomy

Feb. 22, 2013 Rise Set
Actual Time 6:41 AM PST 5:45 PM PST
Civil Twilight 6:14 AM PST 6:12 PM PST
Nautical Twilight 5:43 AM PST 6:43 PM PST
Astronomical Twilight 5:12 AM PST 7:14 PM PST
Moon 3:02 PM PST (2/22) 4:29 AM PST (2/22)
Length of Visible Light 11h 57m
Length of Day
11h 03m
Waxing Gibbous, 91% of the Moon is Illuminated
Feb 22
Waxing Gibbous
Feb 25
Full
Mar 4
Last Quarter
Mar 11
New
Mar 19
First Quarter

Hourly Weather History & Observations

Time (PST) Temp. Windchill Dew Point Humidity Pressure Visibility Wind Dir Wind Speed Gust Speed Precip Events Conditions
12:53 AM 19.9 °F 12.1 °F 10.0 °F 65% 30.14 in 10.0 mi South 5.8 mph - N/A   Clear
1:53 AM 19.9 °F - 10.0 °F 65% 30.13 in 10.0 mi Calm Calm - N/A   Clear
2:53 AM 18.0 °F 12.7 °F 9.0 °F 68% 30.14 in 10.0 mi SSW 3.5 mph - N/A   Clear
3:53 AM 19.0 °F 13.9 °F 10.0 °F 68% 30.14 in 10.0 mi SSW 3.5 mph - N/A   Clear
4:53 AM 18.0 °F - 10.0 °F 71% 30.17 in 10.0 mi Calm Calm - N/A   Clear
5:53 AM 15.1 °F - 9.0 °F 77% 30.22 in 10.0 mi Calm Calm - N/A   Clear
6:53 AM 15.1 °F 9.4 °F 9.0 °F 77% 30.24 in 10.0 mi SSW 3.5 mph - N/A   Clear
7:53 AM 16.0 °F - 10.0 °F 77% 30.27 in 10.0 mi Calm Calm - N/A   Clear
8:53 AM 27.0 °F 21.6 °F 15.1 °F 61% 30.23 in 10.0 mi South 4.6 mph - N/A   Clear
9:53 AM 34.0 °F - 15.1 °F 46% 30.22 in 10.0 mi Calm Calm - N/A   Clear
10:53 AM 39.9 °F - 15.1 °F 36% 30.19 in 10.0 mi Calm Calm - N/A   Clear
11:53 AM 42.1 °F 37.1 °F 17.1 °F 37% 30.19 in 10.0 mi NE 8.1 mph - N/A   Clear
12:53 PM 43.0 °F 39.5 °F 5.0 °F 21% 30.16 in 10.0 mi NNE 5.8 mph - N/A   Clear
1:53 PM 45.0 °F 41.8 °F 3.0 °F 18% 30.13 in 10.0 mi NNE 5.8 mph - N/A   Clear
2:53 PM 46.0 °F 43.9 °F 7.0 °F 20% 30.12 in 10.0 mi NE 4.6 mph - N/A   Mostly Cloudy
3:53 PM 48.0 °F - 9.0 °F 21% 30.10 in 10.0 mi NE 4.6 mph - N/A   Scattered Clouds
4:53 PM 44.1 °F - 23.0 °F 43% 30.12 in 10.0 mi Calm Calm - N/A   Clear
5:53 PM 39.9 °F 34.5 °F 25.0 °F 55% 30.17 in 10.0 mi SSW 8.1 mph - N/A   Clear
6:53 PM 37.9 °F 34.4 °F 24.1 °F 57% 30.18 in 10.0 mi Variable 4.6 mph - N/A   Clear
7:53 PM 36.0 °F - 23.0 °F 59% 30.18 in 10.0 mi Calm Calm - N/A   Clear
8:53 PM 37.9 °F 33.5 °F 19.0 °F 47% 30.12 in 10.0 mi SSW 5.8 mph - N/A   Partly Cloudy
9:53 PM 37.9 °F 30.5 °F 19.9 °F 48% 30.09 in 10.0 mi SSW 11.5 mph 19.6 mph N/A   Clear
10:53 PM 37.0 °F 27.0 °F 23.0 °F 57% 30.09 in 10.0 mi South 18.4 mph - N/A   Overcast
11:53 PM 36.0 °F 28.0 °F 23.0 °F 59% 30.07 in 10.0 mi SSE 11.5 mph 20.7 mph N/A   Overcast